Regional Weather Roundup
Issued by NWS

Home | Current Version | Previous Version | Graphics & Text | Print | Product List | Glossary On
Versions: 1 2 3 4 5 6 7 8 9 10 11 12 13 14 15 16 17 18 19 20 21 22 23 24 25 26 27 28 29 30 31 32 33 34 35 36 37 38 39 40 41 42 43 44 45 46 47 48 49 50
000
ASUS43 KMKX 221300
RWRWI

WISCONSIN REGIONAL WEATHER ROUNDUP
NATIONAL WEATHER SERVICE MILWAUKEE/SULLIVAN WI
800 AM CDT WED OCT 22 2014

NOTE: "FAIR" INDICATES FEW OR NO CLOUDS BELOW 12,000 FEET WITH NO
SIGNIFICANT WEATHER AND/OR OBSTRUCTIONS TO VISIBILITY.

WIZ001-002-006>008-014>016-023>028-221400-
NORTHWEST WISCONSIN

CITY           SKY/WX    TMP DP  RH WIND       PRES   REMARKS
SUPERIOR ARPT  CLEAR     28  28  97 CALM      30.22F
ASHLAND        CLEAR     27  26  96 S5        30.27S WCI  22
HAYWARD        CLEAR     38  33  82 S8        30.26F WCI  32
SIREN          CLEAR     40  35  80 S10       30.22F WCI  34
CUMBERLAND     CLEAR     34  32  93 SE7       30.25S WCI  28
RICE LAKE      CLEAR     37  33  87 SE9       30.28S WCI  30
CHETEK         CLEAR     35  33  92 E7        30.27F WCI  29
LADYSMITH      CLEAR     32  31  95 E5        30.31S WCI  27
EAU CLAIRE     CLEAR     36  33  89 SE5       30.29R WCI  32
MENOMONIE      CLEAR     35  33  94 E8        30.28S WCI  28
NEW RICHMOND   CLEAR     38  35  89 SE3       30.24S
OSCEOLA        CLEAR     39  37  93 SE9       30.25S WCI  33
$$

WIZ003>005-009-010-017-018-221400-
NORTH CENTRAL WISCONSIN

CITY           SKY/WX    TMP DP  RH WIND       PRES   REMARKS
MANITOWISH WTR FAIR      31  31 100 S6        30.30S WCI  26
ARBOR VITAE    CLEAR     34  32  93 S3        30.31S
WOODRUFF       CLEAR     34  32  93 S3        30.31S
RHINELANDER    CLEAR     26  25  96 SE5       30.33S WCI  20
EAGLE RIVER    FOG       29  29 100 CALM      30.32S VSB 1/4
LAND O LAKES   CLEAR     26  26  99 CALM      30.33R
PHILLIPS       CLEAR     31  30  96 SE5       30.29S WCI  27
TOMAHAWK       PTCLDY    28  27  96 CALM      30.33R
MEDFORD        PTCLDY    32  31  96 SE3       30.31S
MERRILL        PTCLDY    23  22  95 CALM      30.34S
$$

WIZ029-030-035-036-043>047-221400-
CENTRAL WISCONSIN

CITY           SKY/WX    TMP DP  RH WIND       PRES   REMARKS
WAUSAU         PTCLDY    30  28  92 CALM      30.34R
MOSINEE        NOT AVBL
MARSHFIELD     PTCLDY    32  31  96 SE7       30.32S FOG     WCI  26
STEVENS POINT  PTCLDY    25  24  94 CALM      30.36R
WAUPACA        CLEAR     28  27  95 N3        30.37R
WAUTOMA        PTCLDY    25  21  86 CALM      30.37R
WISC RAPIDS    PTCLDY    28  27  96 E3        30.36S
CAMP DOUGLAS   CLEAR     23  23 100 E3        30.34R
$$

WIZ011>013-019>022-031-037>040-048>050-221400-
NORTHEAST WISCONSIN

CITY           SKY/WX    TMP DP  RH WIND       PRES   REMARKS
ANTIGO         FOG       31  31 100 CALM      30.35R VSB<1/4
SHAWANO        PTCLDY    31  30  94 CALM      30.37S
OCONTO         PTCLDY    27  27 100 CALM      30.38R
STURGEON BAY   CLEAR     34  30  86 SE3       30.38R
GREEN BAY      FOG       31  31 100 CALM      30.38R VSB<1/4
MANITOWOC      NOT AVBL
APPLETON       PTCLDY    32  30  93 NE7       30.36R WCI  26
CLINTONVILLE   CLOUDY    30  28  93 CALM      30.37R
OSHKOSH        PTCLDY    31  30  96 CALM      30.36R
$$

WIZ032>034-041-042-053>061-221400-
SOUTHWEST WISCONSIN

CITY           SKY/WX    TMP DP  RH WIND       PRES   REMARKS
LA CROSSE      CLEAR     37  34  89 SE7       30.32R WCI  32
SPARTA         PTCLDY    26  25  98 CALM      30.33R
VIROQUA        CLEAR     34  34 100 SE6       30.31R WCI  29
BOSCOBEL       FOG       33  32  96 E3        30.35R VSB<1/4
PRAIRIE DU CHI CLEAR     33  32  94 CALM      30.33S
PLATTEVILLE    PTCLDY    34  33  95 E8        30.33S WCI  27
$$

WIZ056-057-062-063-064-067-068-221400-
SOUTH CENTRAL WISCONSIN

CITY           SKY/WX    TMP DP  RH WIND       PRES   REMARKS
REEDSBURG      PTCLDY    26  26  99 CALM      30.34S FOG
BARABOO/DELLS  PTCLDY    26  25  97 CALM      30.35R
LONE ROCK      NOT AVBL
MINERAL POINT  PTCLDY    36  34  93 E6        30.32S WCI  31
MADISON        MOCLDY    30  28  92 CALM      30.36R
MIDDLETON      CLOUDY    30  30 100 CALM      30.36R VSB<1/4
WATERTOWN      PTCLDY    26  26 100 CALM      30.35R FOG
MONROE         PTCLDY    34  34 100 NE5       30.33R FOG     WCI  30
JANESVILLE     PTCLDY    28  28 100 CALM      30.35R FOG
$$

WIZ051-052-058>065-066-070>072-221400-
SOUTHEAST WISCONSIN

CITY           SKY/WX    TMP DP  RH WIND       PRES   REMARKS
MILWAUKEE      PTCLDY    37  33  85 CALM      30.35R
WAUKESHA       NOT AVBL
MILWAUKEE/TIMM CLEAR     32  28  86 CALM      30.35R
RACINE         CLOUDY    39  36  89 CALM      30.37R
BURLINGTON     CLEAR     24  24  99 CALM      30.34R FOG
KENOSHA        PTCLDY    33  32  96 CALM      30.35R
FOND DU LAC    PTCLDY    27  25  92 CALM      30.36R
SHEBOYGAN      CLOUDY    32  31  96 CALM      30.36R
WEST BEND      PTCLDY    28  27  93 CALM      30.35S
JUNEAU         PTCLDY    31  30  97 NE3       30.35S
$$

LSZ147-162-221400-
LAKE SUPERIOR

STATION/POSITION TIME  TEMP    WIND        PRES    WAVE
                       AIR SEA DIR/SP/G            HT/PER
                 (UTC) (F)     (DEG/KT/KT) (MB)    (FT/S)
W MID LAKE BUOY  1150   44 46  170/ 14/ 16 1025.8R   2/ 4
DEVILS ISLAND    1200   44     180/  5/  7 1025.5R
PORT WING        1240   41     140/  5/  9 1024.0S
SAXON HARBOR     1240   33        CALM     1025.1R
$$

LMZ867-665-643>646-221400-
LAKE MICHIGAN

STATION/POSITION TIME  TEMP    WIND        PRES    WAVE
                       AIR SEA DIR/SP/G            HT/PER
                 (UTC) (F)     (DEG/KT/KT) (MB)    (FT/S)
CHAMBERS ISLAND  1200   40     120/  4/  6 1028.1S
N MID LAKE BUOY  1150   43 51  160/  4/  6 1029.0R   1
NORTHPORT PIER   1200   39     180/  2/  4 1028.4R
SISTER BAY       1228             CALM       N/A
KEWAUNEE LAKESHO 1200   30     300/  4/  5 1027.1R
SHEBOYGAN LAKESH 1200   46 49  110/ 10/ 11 1028.3R
PORT WASHINGTON  1240   38     290/  3/  4 1028.4R
ATWATER BUOY     1200   47     360/  2/  8 1028.2R
MILWAUKEE LAKESH 1200   40     310/  2/  3   N/A
S MID LAKE BUOY  1150   46 54  110/  8/ 10 1028.0R   2/ 4
KENOSHA   LAKESH 1200   40     280/  2/  3 1027.1R
$$

TC  - TEMPERATURE IN CELSIUS
VSB - VISIBILITY IN STATUTE MILES
WCI - WIND CHILL INDEX
HX  - HEAT INDEX




USA.gov is the U.S. government's official web portal to all federal, state and local government web resources and services.